Find Starlink 30478

NORAD ID: 57911 Int'l Des: 2023-146 Owner: SPXS Country: US Constellation: starlink operational
LEOCIRCULAR

实时位置

正在加载3D地球...

关于 Starlink 30478

正在加载描述...

即将过境

Passes for default location (London). Set your location on the main map for personalized predictions.

高度历史

Loading altitude history...

两行轨道根数

1 57911U 23146W 26126.25002315 -.00024482 00000-0 -88271-3 0 9995
2 57911 43.0020 348.9305 0001528 266.2419 22.4628 15.27592193 5803
Epoch: May 6, 2026 • Age: 9 hours

当前状态

高度 495.1 km
速度 7.62 km/s
星下点 -42.47°S, 150.32°E
发射日期 Sep 20, 2023
运行时间 2.6 years
类型 internet

技术详情

分类 Payload
质量 730.00 kg
干质量 700.00 kg
总质量 730.00 kg
长度 0.30 m
直径 4.10 m
跨度 29.00 m
形状 Box + pan
制造商 SPXS
平台类型 Starlink V2M
阶段状态 In Orbit
所有者/国家 SPXS/US

Most Searched